TimeCDT,TemperatureF,Dew PointF,Humidity,Sea Level PressureIn,VisibilityMPH,Wind Direction,Wind SpeedMPH,Gust SpeedMPH,PrecipitationIn,Events,Conditions,WindDirDegrees,DateUTC
12:14 AM,69.8,68.0,94,30.00,10.0,Calm,Calm,-,N/A,Rain,Light Rain,0,2013-09-11 05:14:00
12:34 AM,68.0,68.0,100,30.01,10.0,Calm,Calm,-,N/A,,Clear,0,2013-09-11 05:34:00
12:54 AM,68.0,66.2,94,30.02,10.0,Calm,Calm,-,N/A,,Clear,0,2013-09-11 05:54:00
1:14 AM,66.2,66.2,100,30.01,10.0,Calm,Calm,-,N/A,,Clear,0,2013-09-11 06:14:00
1:34 AM,66.2,66.2,100,30.02,10.0,Calm,Calm,-,N/A,,Clear,0,2013-09-11 06:34:00
1:53 AM,66.2,66.2,100,30.02,10.0,Calm,Calm,-,N/A,,Clear,0,2013-09-11 06:53:00
2:14 AM,66.2,64.4,94,30.02,10.0,Calm,Calm,-,N/A,,Clear,0,2013-09-11 07:14:00
2:34 AM,66.2,66.2,100,30.02,10.0,Calm,Calm,-,N/A,,Clear,0,2013-09-11 07:34:00
2:54 AM,66.2,64.4,94,30.02,10.0,Calm,Calm,-,N/A,,Clear,0,2013-09-11 07:54:00
3:14 AM,66.2,64.4,94,30.02,10.0,Calm,Calm,-,N/A,,Clear,0,2013-09-11 08:14:00
3:34 AM,64.4,64.4,100,30.03,10.0,Calm,Calm,-,N/A,,Clear,0,2013-09-11 08:34:00
3:54 AM,64.4,64.4,100,30.03,10.0,Calm,Calm,-,N/A,,Clear,0,2013-09-11 08:54:00
4:14 AM,64.4,64.4,100,30.02,7.0,Calm,Calm,-,N/A,,Clear,0,2013-09-11 09:14:00
4:34 AM,64.4,64.4,100,30.03,10.0,Calm,Calm,-,N/A,,Clear,0,2013-09-11 09:34:00
4:54 AM,64.4,64.4,100,30.03,10.0,Calm,Calm,-,N/A,,Clear,0,2013-09-11 09:54:00
5:14 AM,62.6,62.6,100,30.03,7.0,Calm,Calm,-,N/A,,Clear,0,2013-09-11 10:14:00
5:33 AM,62.6,62.6,100,30.04,10.0,Calm,Calm,-,N/A,,Clear,0,2013-09-11 10:33:00
5:54 AM,62.6,62.6,100,30.04,10.0,Calm,Calm,-,N/A,,Clear,0,2013-09-11 10:54:00
6:14 AM,62.6,62.6,100,30.05,3.0,Calm,Calm,-,N/A,,Clear,0,2013-09-11 11:14:00
6:34 AM,62.6,62.6,100,30.05,7.0,Calm,Calm,-,N/A,,Clear,0,2013-09-11 11:34:00
6:54 AM,64.4,64.4,100,30.05,7.0,Calm,Calm,-,N/A,,Clear,0,2013-09-11 11:54:00
7:13 AM,60.8,60.8,100,30.05,0.5,Calm,Calm,-,N/A,Fog,Fog,0,2013-09-11 12:13:00
7:34 AM,62.6,62.6,100,30.06,5.0,South,3.5,-,N/A,,Clear,190,2013-09-11 12:34:00
7:54 AM,64.4,64.4,100,30.05,7.0,Calm,Calm,-,N/A,,Clear,0,2013-09-11 12:54:00
8:13 AM,64.4,64.4,100,30.05,7.0,Calm,Calm,-,N/A,,Clear,0,2013-09-11 13:13:00
8:34 AM,66.2,66.2,100,30.06,10.0,South,3.5,-,N/A,,Clear,190,2013-09-11 13:34:00
8:54 AM,68.0,66.2,94,30.05,10.0,SSW,4.6,-,N/A,,Clear,200,2013-09-11 13:54:00
9:14 AM,69.8,66.2,88,30.05,10.0,SSW,4.6,-,N/A,,Clear,210,2013-09-11 14:14:00
9:34 AM,71.6,66.2,83,30.05,10.0,SSW,5.8,-,N/A,,Clear,210,2013-09-11 14:34:00
9:53 AM,73.4,66.2,78,30.05,10.0,SW,6.9,-,N/A,,Clear,220,2013-09-11 14:53:00
10:14 AM,75.2,64.4,69,30.06,10.0,WSW,8.1,-,N/A,,Clear,250,2013-09-11 15:14:00
10:33 AM,77.0,64.4,65,30.06,10.0,SW,8.1,-,N/A,,Clear,230,2013-09-11 15:33:00
10:54 AM,78.8,64.4,61,30.06,10.0,SW,8.1,-,N/A,,Clear,230,2013-09-11 15:54:00
11:14 AM,78.8,64.4,61,30.06,10.0,WSW,8.1,-,N/A,,Clear,240,2013-09-11 16:14:00
11:33 AM,80.6,62.6,54,30.06,10.0,WSW,11.5,-,N/A,,Clear,250,2013-09-11 16:33:00
11:54 AM,80.6,62.6,54,30.06,10.0,West,12.7,18.4,N/A,,Clear,260,2013-09-11 16:54:00
12:14 PM,80.6,62.6,54,30.05,10.0,West,8.1,-,N/A,,Clear,260,2013-09-11 17:14:00
12:33 PM,82.4,60.8,48,30.05,10.0,West,11.5,16.1,N/A,,Clear,280,2013-09-11 17:33:00
12:54 PM,82.4,59.0,45,30.05,10.0,West,12.7,18.4,N/A,,Clear,270,2013-09-11 17:54:00
1:13 PM,82.4,57.2,42,30.04,10.0,West,13.8,20.7,N/A,,Clear,280,2013-09-11 18:13:00
1:34 PM,82.4,57.2,42,30.04,10.0,West,15.0,-,N/A,,Clear,280,2013-09-11 18:34:00
1:54 PM,82.4,57.2,42,30.04,10.0,West,16.1,-,N/A,,Clear,280,2013-09-11 18:54:00
2:13 PM,84.2,57.2,40,30.04,10.0,West,12.7,20.7,N/A,,Clear,280,2013-09-11 19:13:00
2:34 PM,84.2,57.2,40,30.04,10.0,West,15.0,20.7,N/A,,Scattered Clouds,280,2013-09-11 19:34:00
2:54 PM,82.4,57.2,42,30.04,10.0,WNW,9.2,18.4,N/A,,Clear,300,2013-09-11 19:54:00
3:13 PM,82.4,55.4,39,30.04,10.0,WNW,12.7,20.7,N/A,,Clear,300,2013-09-11 20:13:00
3:34 PM,84.2,55.4,37,30.04,10.0,WNW,11.5,18.4,N/A,,Clear,300,2013-09-11 20:34:00
3:54 PM,84.2,55.4,37,30.04,10.0,West,12.7,-,N/A,,Scattered Clouds,280,2013-09-11 20:54:00
4:14 PM,82.4,55.4,39,30.04,10.0,WNW,11.5,18.4,N/A,,Clear,290,2013-09-11 21:14:00
4:34 PM,82.4,55.4,39,30.04,10.0,WNW,10.4,17.3,N/A,,Clear,290,2013-09-11 21:34:00
4:54 PM,82.4,55.4,39,30.04,10.0,WNW,11.5,16.1,N/A,,Clear,290,2013-09-11 21:54:00
5:14 PM,82.4,53.6,37,30.04,10.0,WNW,9.2,12.7,N/A,,Clear,300,2013-09-11 22:14:00
5:34 PM,82.4,53.6,37,30.04,10.0,WNW,8.1,-,N/A,,Clear,300,2013-09-11 22:34:00
5:54 PM,80.6,51.8,37,30.05,10.0,NW,8.1,-,N/A,,Clear,310,2013-09-11 22:54:00
6:14 PM,80.6,53.6,39,30.04,10.0,WNW,6.9,-,N/A,,Clear,300,2013-09-11 23:14:00
6:34 PM,78.8,53.6,42,30.04,10.0,WNW,3.5,-,N/A,,Clear,290,2013-09-11 23:34:00
6:53 PM,78.8,53.6,42,30.04,10.0,WNW,3.5,-,N/A,,Clear,290,2013-09-11 23:53:00
7:14 PM,73.4,55.4,53,30.04,10.0,Calm,Calm,-,N/A,,Clear,0,2013-09-12 00:14:00
7:34 PM,68.0,57.2,68,30.04,10.0,Calm,Calm,-,N/A,,Clear,0,2013-09-12 00:34:00
7:53 PM,66.2,57.2,73,30.04,10.0,Calm,Calm,-,N/A,,Clear,0,2013-09-12 00:53:00
8:14 PM,64.4,57.2,77,30.04,10.0,Calm,Calm,-,N/A,,Clear,0,2013-09-12 01:14:00
8:33 PM,64.4,57.2,77,30.05,10.0,Calm,Calm,-,N/A,,Clear,0,2013-09-12 01:33:00
8:54 PM,64.4,57.2,77,30.06,10.0,Calm,Calm,-,N/A,,Clear,0,2013-09-12 01:54:00
9:14 PM,62.6,55.4,77,30.06,10.0,SSW,3.5,-,N/A,,Clear,210,2013-09-12 02:14:00
9:33 PM,66.2,57.2,73,30.06,7.0,SSW,3.5,-,N/A,,Clear,210,2013-09-12 02:33:00
9:54 PM,64.4,57.2,77,30.06,10.0,SW,3.5,-,N/A,,Clear,230,2013-09-12 02:54:00
10:14 PM,66.2,57.2,73,30.06,10.0,WSW,4.6,-,N/A,,Clear,250,2013-09-12 03:14:00
10:33 PM,64.4,55.4,73,30.07,10.0,West,6.9,-,N/A,,Clear,270,2013-09-12 03:33:00
10:54 PM,64.4,55.4,73,30.07,10.0,West,6.9,-,N/A,,Clear,280,2013-09-12 03:54:00
11:13 PM,68.0,55.4,64,30.07,10.0,NW,8.1,-,N/A,,Clear,310,2013-09-12 04:13:00
11:34 PM,66.2,55.4,68,30.07,10.0,NW,9.2,-,N/A,,Clear,310,2013-09-12 04:34:00
11:54 PM,66.2,53.6,64,30.08,10.0,NW,6.9,-,N/A,,Clear,320,2013-09-12 04:54:00